Temp
21 21 21 22 21 22 21 22 22 22 22 22 21 22 23 23 23 23 23 22 23 23 23 23 23 22 22 22 22 22 22 22 22 22 22 22 22 22 22 22 22 21 21 21 21 21 21 22 22 21 22 22 23 22 21 21 21 22 22 22 22 22 22 22 21 22 21 20 21 21 21 21 21 21 21 21 21 21 22 22 22 21 21 21 21
21 21 21 22 22 22 21 22 22 22 21 21 22 22 23 22 22 22 23 23 23 23 23 23 23 22 22 22 22 22 22 22 22 22 22 21 21 21 21 22 21 21 21 21 21 21 21 21 22 22 22 22 22 22 22 21 21 22 22 22 22 22 22 22 22 22 21 20 21 21 21 21 21 21 21 21 21 21 22 22 21 21 21 21 21
21 21 21 22 21 21 21 21 21 21 22 22 22 22 22 22 22 22 23 23 23 23 23 23 22 22 22 22 22 21 22 22 22 22 21 21 21 21 21 22 22 21 21 21 21 21 21 22 22 22 21 22 22 22 22 22 22 22 22 21 21 22 22 22 22 22 21 20 21 22 22 21 21 21 21 21 21 21 22 21 21 21 21 21 21
22 21 21 22 21 21 21 21 21 22 22 22 22 22 22 23 23 23 23 23 23 23 22 23 22 22 22 21 21 21 21 21 21 21 21 21 21 21 21 22 21 21 21 21 21 21 21 21 21 21 21 21 21 21 22 21 22 22 21 21 21 22 22 22 22 22 21 20 21 21 21 21 22 22 22 22 22 22 22 21 21 21 21 21 21
22 22 21 22 21 22 21 22 22 22 22 22 22 22 23 23 23 23 23 23 22 23 22 22 22 22 21 21 21 21 21 21 21 21 21 21 21 21 21 21 21 21 21 21 21 21 21 21 21 21 21 22 22 22 21 21 22 22 21 21 21 22 22 22 21 22 21 20 21 21 21 21 21 22 22 22 22 22 22 21 21 21 21 21 21
22 22 21 22 22 22 22 22 22 22 22 22 23 23 23 23 23 23 23 23 22 22 22 22 22 21 21 21 21 21 21 21 21 21 21 21 21 21 21 21 21 21 21 21 21 21 21 21 21 22 22 22 22 22 21 21 21 21 21 21 21 22 21 21 21 21 21 20 21 21 21 21 21 22 22 22 22 22 21 21 21 21 21 21 21
22 22 22 22 21 22 22 22 22 22 22 23 23 23 23 23 23 23 22 22 22 22 22 22 22 21 21 21 21 21 21 21 21 21 21 21 21 21 21 21 21 21 21 21 21 21 21 21 21 22 22 22 22 22 21 21 21 21 21 21 22 22 21 21 21 21 21 21 21 22 21 21 21 21 22 22 22 21 21 21 21 21 21 21 21
22 22 22 22 22 22 22 22 22 22 23 23 24 23 22 22 22 22 22 21 22 22 22 21 21 21 21 21 21 21 21 21 21 21 21 21 21 22 22 22 21 21 21 21 21 21 21 21 21 22 22 22 21 22 21 21 21 20 21 22 22 22 21 22 21 21 21 21 21 21 22 21 21 21 21 22 22 22 21 21 21 21 21 21 21
23 23 23 22 22 22 22 22 22 23 23 23 23 23 22 22 22 22 22 21 21 21 21 21 21 21 21 21 21 21 21 21 21 21 21 21 22 22 22 22 22 21 21 21 21 21 21 21 21 21 21 21 21 21 21 21 21 20 21 22 22 22 22 22 22 21 21 21 21 21 21 21 21 21 21 21 21 21 21 21 21 21 21 21 21
24 24 23 22 22 22 22 22 23 23 23 23 23 22 22 22 22 22 21 21 21 21 21 21 21 21 21 21 21 21 21 21 21 21 21 22 22 22 22 22 21 21 21 21 21 21 21 21 21 21 21 21 21 21 21 21 21 21 21 21 22 22 22 22 22 22 22 21 21 21 21 21 21 21 21 21 21 21 21 21 21 21 21 21 21
24 23 23 22 22 22 22 23 23 23 24 23 22 22 22 22 21 22 21 21 21 21 21 21 21 21 21 21 21 21 21 21 21 21 21 22 22 22 21 21 21 21 21 21 21 21 21 21 21 21 21 21 21 21 21 21 21 21 21 22 22 22 22 22 22 22 22 22 21 22 22 21 21 21 21 22 21 22 21 21 21 21 21 21 21
24 23 22 22 22 22 23 23 23 23 23 22 22 22 22 21 21 21 21 21 21 21 21 21 21 21 21 21 21 21 21 21 21 21 21 22 22 21 21 21 21 21 21 21 21 21 21 21 21 21 21 21 21 21 21 21 21 21 22 22 22 22 23 22 22 22 22 22 22 22 22 22 21 21 22 22 22 22 21 21 21 21 20 20 21
24 23 23 22 22 23 24 24 23 23 22 22 22 22 22 22 21 21 21 21 21 21 21 21 22 21 21 21 21 21 21 21 21 21 21 22 22 21 21 21 21 21 21 21 21 21 21 21 21 21 21 21 21 21 21 21 21 21 22 22 22 23 23 23 23 22 22 22 22 22 22 21 21 22 22 22 21 21 21 21 21 21 20 20 20
24 24 24 23 23 23 24 23 23 22 22 22 22 22 22 22 22 22 22 21 21 21 21 21 22 21 21 21 21 21 21 21 21 21 21 22 21 21 21 21 21 21 21 21 21 21 21 21 21 21 21 21 21 21 21 21 21 21 22 22 22 23 23 23 23 23 23 23 22 22 22 21 22 22 22 21 21 21 21 21 21 21 21 21 20
25 24 24 24 23 23 23 22 22 22 22 22 22 22 22 22 22 22 22 21 21 21 21 21 21 21 21 21 21 21 21 21 21 21 21 22 21 21 21 21 21 21 21 21 21 21 21 21 21 21 21 21 21 21 21 21 21 22 22 22 22 23 24 24 24 24 23 23 23 22 22 21 22 22 21 21 21 21 21 21 21 21 21 21 21
25 25 25 24 23 23 23 22 22 22 22 22 22 22 22 22 22 22 22 22 22 21 22 21 21 21 21 21 21 21 21 21 21 21 21 21 21 21 21 21 21 21 21 21 21 21 21 21 21 21 21 21 21 21 22 22 22 22 22 23 23 23 24 24 24 24 24 23 22 22 21 21 21 21 21 21 21 21 21 21 21 21 21 21 21
25 26 26 25 24 23 23 23 23 22 22 22 22 22 22 22 22 22 22 22 22 21 22 22 21 21 21 21 21 21 21 21 21 21 21 21 21 21 21 21 21 21 21 21 21 21 21 21 21 21 22 21 22 22 22 22 22 22 23 23 23 24 24 24 24 24 23 23 22 22 21 21 21 21 21 21 21 21 21 21 21 21 21 21 21
25 26 26 25 25 24 24 23 23 22 22 22 22 22 22 22 22 22 22 22 22 21 22 22 22 21 21 21 21 21 21 21 21 21 21 22 22 21 22 21 21 21 21 21 21 21 21 21 22 22 22 22 22 22 22 22 22 22 23 23 23 24 24 24 24 24 23 23 22 22 21 21 21 21 21 21 21 21 21 21 21 21 21 21 21
26 27 27 26 26 25 24 23 22 22 22 22 22 22 22 22 21 22 22 22 22 22 21 22 22 21 21 21 21 21 21 21 21 22 22 21 22 22 22 22 22 22 21 21 22 22 22 22 22 22 23 23 23 23 23 23 23 22 23 23 24 24 24 25 25 24 24 23 23 22 21 21 21 21 21 21 21 21 21 21 21 21 21 21 20
28 28 28 27 27 25 24 23 22 23 22 22 22 22 21 21 21 22 22 22 22 22 22 22 22 21 21 21 21 21 21 21 21 22 22 21 22 22 22 22 22 22 22 22 22 22 22 22 22 22 23 23 23 23 23 23 23 23 23 23 24 24 25 25 25 25 24 23 22 21 21 21 21 21 21 21 21 21 21 21 21 21 21 21 20
28 28 27 27 27 25 23 23 23 24 23 22 22 22 22 22 22 22 22 22 22 22 22 22 22 22 22 22 22 22 21 21 21 22 22 22 22 22 22 22 22 22 22 22 22 22 23 23 22 23 23 23 23 23 23 23 23 23 23 24 24 24 25 25 25 24 24 23 22 21 21 21 21 21 21 21 21 21 21 21 21 21 21 21 21
27 27 27 27 26 24 23 23 23 24 23 23 22 22 22 22 21 22 22 22 22 22 22 22 22 22 22 22 22 22 22 22 21 22 22 22 22 22 22 22 22 22 22 22 22 22 22 23 23 23 23 23 23 23 23 23 24 24 24 24 24 25 25 25 25 24 24 23 22 22 22 21 21 21 21 21 21 21 21 21 21 21 21 21 21
27 27 27 27 26 25 24 24 23 23 23 23 23 22 22 22 22 22 22 22 22 22 22 22 22 22 22 22 22 22 22 22 22 22 22 22 22 22 22 22 22 22 23 22 22 22 22 22 22 23 23 23 23 23 24 24 24 24 25 25 25 25 25 25 25 24 23 22 22 22 22 21 21 21 21 21 21 21 21 21 21 21 21 21 21
27 27 27 26 26 25 24 24 23 23 23 23 23 23 23 23 23 22 22 22 22 22 23 22 22 23 22 22 22 22 22 22 22 22 22 22 22 22 22 22 22 22 23 23 23 23 22 22 23 23 22 23 24 25 25 25 25 25 26 26 25 25 25 25 25 24 23 22 22 22 22 21 21 21 21 21 21 21 21 21 21 21 21 21 21
27 27 27 26 26 26 25 24 24 24 24 23 23 23 23 23 23 23 23 23 23 23 23 23 23 24 23 22 22 22 22 23 22 22 23 22 22 22 22 22 22 22 22 22 23 23 22 23 23 23 23 24 25 26 26 27 27 27 27 26 26 26 26 26 25 24 23 22 22 22 22 22 21 21 21 21 21 21 21 21 21 21 20 20 20
27 27 27 26 26 26 25 25 24 24 24 24 24 23 23 23 23 23 23 24 24 24 24 24 24 25 24 24 23 23 23 23 23 23 23 23 23 22 22 22 22 23 23 23 23 23 23 23 24 24 24 25 25 26 26 27 27 26 26 26 26 26 26 26 25 25 23 22 22 22 22 22 21 21 21 21 21 21 21 21 20 20 20 20 20
27 27 26 26 27 27 26 25 25 25 25 25 24 23 23 23 23 23 24 24 25 25 25 25 24 25 25 25 24 23 23 24 24 23 23 24 24 23 23 23 23 23 23 23 23 23 24 24 25 25 25 26 25 25 25 26 26 26 26 26 26 26 26 26 25 25 24 23 23 23 22 22 22 21 21 21 21 21 20 20 20 20 20 20 20
27 27 27 26 27 27 26 25 25 25 25 25 25 25 25 25 24 24 25 25 25 26 25 25 24 25 25 25 25 24 24 24 25 24 24 25 25 25 24 24 25 24 23 24 24 24 24 25 25 25 25 26 26 26 26 26 26 26 26 26 26 26 26 26 25 25 25 23 23 23 23 22 22 22 21 21 20 21 21 21 21 21 21 20 20
28 27 27 27 27 27 26 25 25 25 25 25 25 26 25 25 25 25 25 25 26 26 26 25 25 25 25 25 26 26 25 25 25 25 25 25 25 25 25 25 25 25 24 25 25 25 24 24 24 25 25 25 26 26 27 27 26 26 26 26 26 26 26 26 25 26 25 24 23 23 23 23 23 22 22 21 21 21 21 21 21 21 21 20 20
28 28 27 27 27 27 27 26 25 25 25 25 25 26 25 25 25 25 25 26 26 26 26 26 25 25 25 24 25 26 26 26 25 25 25 25 25 25 25 25 25 25 25 25 25 25 25 24 24 25 25 26 27 27 27 27 27 27 27 27 27 26 26 26 26 26 25 24 23 23 24 23 23 23 23 22 22 22 21 21 21 21 21 20 21
29 28 28 27 27 28 27 26 25 25 25 26 25 25 25 25 25 25 25 26 25 26 26 26 26 25 24 24 24 25 26 26 25 25 25 25 25 25 25 25 25 25 25 25 25 25 25 24 25 25 26 27 27 27 27 27 27 27 27 27 27 27 27 26 27 26 26 25 24 23 24 24 24 23 23 23 23 23 23 22 22 21 21 21 21
29 29 28 27 28 28 27 26 25 25 25 25 25 25 25 25 25 26 25 25 25 26 26 26 25 25 24 24 24 24 25 25 24 25 25 25 24 25 25 25 25 25 25 25 25 25 25 24 25 25 25 26 27 27 27 27 27 27 27 27 27 27 27 27 27 27 26 26 25 24 23 23 24 24 23 23 23 23 23 23 23 22 22 22 22
29 29 28 28 28 28 27 26 26 25 25 26 25 25 25 25 26 26 25 25 26 26 26 26 25 24 24 24 23 24 24 24 24 25 25 25 25 24 25 25 25 25 25 25 25 25 25 25 25 25 25 26 27 27 27 28 28 28 28 27 27 27 27 27 27 27 27 26 26 25 24 23 23 23 23 23 23 23 23 23 23 23 23 23 23
29 29 28 28 28 28 27 26 26 25 26 26 26 26 26 26 26 26 25 26 26 26 26 25 25 24 24 23 23 23 24 24 24 24 25 25 25 25 25 25 25 25 25 24 25 25 25 25 26 26 26 26 27 27 27 28 27 28 28 28 27 27 27 27 27 27 27 27 26 26 25 24 24 23 23 24 24 23 23 23 23 23 23 23 23
29 29 28 28 28 28 27 27 26 25 26 26 26 26 26 26 26 26 26 26 26 26 26 26 25 24 24 24 23 23 23 23 24 24 25 25 25 26 25 25 25 25 25 24 25 26 25 26 26 26 26 26 27 27 27 28 27 27 28 28 27 27 27 27 27 27 27 27 26 26 26 25 25 24 24 24 24 24 24 24 23 23 23 23 23
29 29 28 28 28 27 27 27 26 26 26 25 25 25 26 26 26 26 26 26 27 27 26 26 26 25 24 24 23 23 23 23 23 24 24 25 26 26 25 24 24 25 25 24 25 25 25 25 26 26 26 27 27 27 27 27 27 27 27 27 27 27 28 27 27 28 27 27 26 26 26 26 26 25 25 25 25 24 24 24 24 24 24 24 24
29 29 28 28 28 27 27 27 26 26 25 25 25 25 25 25 25 26 26 26 27 27 27 26 26 25 25 24 24 24 23 23 23 24 24 25 25 25 24 24 24 24 24 24 25 25 25 25 25 26 26 27 28 28 28 28 28 28 28 28 27 27 27 27 28 28 27 27 27 27 27 26 26 25 25 26 26 25 25 25 24 24 24 24 24
29 28 28 28 28 27 27 27 27 26 25 25 25 25 25 25 25 26 26 26 27 27 27 27 27 26 25 24 24 24 24 23 23 23 24 25 25 25 25 24 24 24 24 25 25 25 25 25 25 25 26 26 27 28 28 28 28 29 28 28 27 27 27 27 27 27 27 27 27 27 27 27 27 26 26 27 27 26 25 25 25 25 25 25 25
29 28 28 28 28 28 27 27 27 26 26 25 25 25 25 25 26 26 26 26 27 27 27 27 27 26 26 24 24 24 24 23 24 24 24 25 25 25 24 24 24 24 24 25 25 25 25 25 25 25 25 26 27 28 28 28 28 28 28 28 28 27 27 27 27 27 28 28 27 27 28 27 27 27 26 27 27 27 26 26 26 25 25 25 25
29 28 28 28 28 27 27 27 27 27 26 25 25 25 26 26 26 26 26 26 27 27 27 27 27 26 26 25 24 24 24 24 24 24 24 24 25 25 24 24 25 24 24 25 25 25 25 25 25 25 25 26 27 27 28 28 28 28 28 28 28 27 27 27 27 28 28 28 28 28 28 28 28 28 27 28 28 28 27 26 26 26 26 26 26
29 28 28 28 27 27 27 26 26 26 26 26 26 26 26 26 27 27 27 27 26 27 27 27 27 26 26 25 25 24 24 24 24 24 24 24 24 24 24 24 25 24 24 24 25 24 24 25 25 25 26 26 27 27 28 27 28 28 28 28 28 28 28 27 28 28 28 28 28 28 29 29 28 28 28 28 28 28 28 27 27 27 27 26 26
29 28 28 28 27 27 27 26 26 26 26 26 26 26 27 27 27 27 27 27 27 27 27 27 27 26 25 25 25 25 24 24 24 24 24 24 25 24 24 24 25 24 24 24 24 24 24 24 25 25 26 27 27 28 27 27 28 28 28 28 28 28 28 28 28 29 29 29 29 29 29 29 29 29 29 28 28 28 28 28 28 27 27 27 27
29 28 28 28 27 27 27 26 26 26 26 26 26 26 27 27 27 27 28 28 27 27 27 27 27 27 26 25 25 25 24 24 24 24 24 24 25 25 24 24 24 24 24 24 24 24 24 25 25 26 26 27 27 27 27 27 28 28 28 28 28 28 28 28 29 30 30 30 30 30 30 30 30 29 29 29 29 29 29 29 28 27 27 27 27
29 28 28 28 28 27 27 26 26 26 26 26 26 26 26 26 27 27 27 27 27 27 27 27 27 27 26 26 25 25 25 25 25 25 25 25 24 25 25 25 24 24 24 24 24 25 25 25 26 26 26 27 28 27 27 27 28 28 28 28 28 28 28 29 30 30 30 30 30 31 30 30 30 29 29 30 30 30 29 29 28 27 27 27 27
29 29 29 28 28 28 27 26 26 26 26 26 26 26 26 26 26 26 27 27 27 27 27 27 27 27 27 27 26 25 25 25 25 25 25 24 24 24 25 25 24 24 24 25 25 25 25 25 26 26 26 27 27 27 27 28 27 27 27 28 28 28 27 29 30 29 30 31 31 31 30 30 30 30 30 30 30 30 30 29 28 28 27 27 27
30 29 29 29 29 28 27 26 26 26 26 26 25 26 25 25 26 26 26 26 26 27 27 27 27 27 27 27 26 26 26 25 25 25 25 24 24 24 24 25 25 24 25 25 25 26 26 26 26 26 26 26 26 27 27 28 27 27 27 28 28 28 28 28 29 29 30 31 31 31 30 31 31 30 30 30 30 30 30 30 29 29 28 28 28
30 30 30 29 29 28 27 26 26 26 26 26 25 25 25 25 26 26 27 26 26 27 27 27 27 27 28 27 27 26 26 26 26 25 25 24 24 24 24 25 25 25 25 25 25 26 26 26 26 26 26 26 26 26 27 28 27 27 28 28 28 28 28 28 29 29 29 29 30 31 31 31 31 31 31 31 31 31 30 30 30 30 29 28 28
30 30 30 30 29 28 27 26 26 26 26 26 25 25 25 25 26 26 27 27 27 27 27 27 27 27 27 27 27 26 26 26 26 25 25 24 24 24 24 24 25 25 25 25 26 26 26 26 25 25 25 25 26 26 26 27 27 28 28 28 28 28 28 29 29 29 29 29 30 31 31 31 32 31 31 32 32 31 30 30 30 30 29 28 28
31 30 30 30 29 28 27 26 26 26 26 26 25 25 25 25 26 26 27 27 27 27 27 27 27 27 27 27 27 26 26 26 25 25 25 25 24 24 24 24 25 25 25 26 26 26 25 25 25 25 25 25 26 26 26 26 27 28 28 27 28 28 28 29 29 29 30 29 30 31 31 31 31 31 31 31 31 31 31 30 30 30 30 29 28
30 30 30 30 29 28 27 26 26 26 26 26 25 25 25 25 26 26 27 27 27 27 27 27 27 26 26 26 26 26 26 26 25 25 25 25 25 24 24 24 24 25 26 26 26 25 25 25 25 25 25 25 25 26 26 26 26 27 28 27 27 27 28 28 29 30 30 29 30 31 32 32 32 31 31 31 31 31 31 30 30 30 30 29 29
30 29 29 30 28 28 27 26 26 26 26 26 25 25 25 25 26 26 26 26 26 27 26 27 26 26 26 26 26 26 26 26 26 25 25 25 25 25 25 25 25 25 25 25 26 26 26 25 25 25 25 25 25 25 26 26 26 26 27 27 27 28 28 28 29 29 29 30 30 31 32 32 31 31 31 30 31 31 31 31 31 30 29 29 28
Height
816 816 817 816 817 818 820 821 823 824 826 827 827 828 828 828 828 828 829 828 828 829 829 830 830 829 829 829 830 832 833 833 833 834 834 834 834 834 834 834 833 834 833 833 833 833 833 833 833 833 833 834 833 834 836 837 836 836 836 836 837 838 837 839 839 840 845 844 840 837 838 839 840 842 843 844 845 845 845 846 846 845 845 846 847
816 817 818 818 818 819 822 822 825 826 827 828 829 830 829 830 829 830 829 829 829 830 830 830 830 829 830 830 832 833 834 834 835 835 834 834 834 835 834 835 835 835 834 834 835 835 835 835 835 835 836 836 835 835 836 837 838 838 838 838 839 840 838 840 841 840 845 846 841 839 839 840 842 843 844 845 846 846 846 847 847 846 847 848 848
816 819 820 820 822 823 824 824 827 827 828 829 830 831 831 831 830 830 829 830 830 830 830 830 831 831 832 833 835 835 835 835 835 836 835 835 835 835 835 835 835 835 836 836 836 836 837 836 837 837 838 838 838 838 837 838 839 840 840 841 841 842 841 841 843 842 846 847 843 841 841 842 843 844 845 846 847 847 847 847 848 848 849 850 850
817 820 822 822 824 825 826 826 828 829 830 830 832 832 832 832 831 831 831 831 831 831 831 831 833 833 834 835 836 836 837 837 836 836 836 836 836 836 836 836 835 836 836 837 837 837 838 838 838 838 839 839 840 839 839 840 840 841 842 843 843 843 843 842 843 843 847 848 844 843 843 844 844 846 846 847 847 848 848 849 849 850 850 851 851
818 820 823 823 824 825 826 827 829 830 831 832 832 833 833 833 832 832 832 832 832 832 832 833 834 835 836 837 837 838 839 838 837 838 837 837 837 837 837 836 836 837 837 838 838 838 839 840 840 839 840 840 841 841 841 841 842 843 844 846 845 845 844 844 845 844 848 848 846 845 845 845 846 847 848 848 849 849 850 850 851 851 852 853 853
818 820 823 824 825 826 827 829 830 831 832 833 833 833 834 833 833 833 833 833 834 834 834 835 836 836 837 838 839 839 840 839 839 838 838 838 837 838 837 837 837 837 838 839 839 840 840 841 841 840 841 842 842 842 842 843 844 845 846 848 847 846 846 846 846 846 849 850 848 847 846 847 847 848 850 850 850 851 851 852 853 853 854 854 854
818 821 824 825 827 827 829 830 831 832 833 833 834 834 834 834 834 834 835 835 835 835 835 836 837 838 839 840 840 840 840 840 839 839 839 839 838 839 838 838 838 838 839 840 841 841 842 843 842 840 842 844 844 843 843 845 846 847 848 849 847 847 848 848 848 848 850 851 850 849 848 849 849 850 851 852 852 853 853 854 854 855 855 856 856
820 822 824 826 827 828 829 830 832 833 834 834 834 835 835 835 836 836 836 836 836 837 837 838 839 839 840 841 841 841 840 840 840 839 840 839 839 839 839 839 839 839 840 841 842 842 843 844 843 842 843 844 845 845 845 847 848 850 850 849 847 848 849 848 849 850 851 852 852 851 850 851 851 852 853 853 854 854 855 855 856 856 857 857 857
821 823 825 827 827 828 830 831 833 834 835 835 836 836 836 837 837 837 838 838 838 838 839 840 840 841 841 842 842 841 841 841 841 841 841 840 840 839 839 839 840 840 841 842 842 843 844 844 844 843 844 845 846 846 847 848 849 851 852 851 849 849 849 848 850 851 853 854 853 852 852 853 853 853 854 855 855 856 856 857 857 858 858 858 858
821 823 825 827 828 830 831 833 834 835 836 836 837 837 838 838 838 839 840 840 840 840 841 841 842 842 843 843 843 842 843 843 843 842 842 840 840 840 840 841 841 842 842 843 843 844 845 845 845 845 846 846 847 847 849 850 851 852 853 852 852 851 850 850 851 852 853 855 854 854 854 854 854 855 856 856 857 857 858 858 859 859 859 859 859
820 823 825 827 829 830 831 833 834 835 836 837 838 838 839 839 840 841 841 841 841 841 842 843 843 844 844 844 844 844 844 844 844 844 843 841 841 842 842 843 843 843 843 844 845 845 846 846 846 847 847 848 849 849 851 851 852 853 853 853 853 853 851 852 854 854 855 856 856 856 856 856 856 856 857 857 858 859 859 860 860 860 861 860 861
820 822 824 827 829 830 832 833 835 836 837 838 839 839 840 841 842 842 842 843 842 843 843 844 845 845 844 845 845 845 845 845 845 845 844 843 843 844 844 845 845 845 845 845 846 846 847 847 847 848 849 849 850 851 852 852 853 854 854 854 854 854 853 854 856 857 858 858 858 857 858 858 858 858 858 859 859 860 860 861 861 861 862 862 862
820 822 825 828 829 832 833 834 836 837 838 839 840 840 842 842 843 843 843 844 844 844 845 846 846 846 846 846 846 846 846 845 845 845 845 844 845 846 846 846 846 846 846 846 847 847 847 848 849 850 850 851 852 853 853 853 854 855 855 854 854 855 855 855 857 858 859 859 859 859 860 860 859 859 860 860 861 861 862 862 862 863 863 863 863
820 823 826 829 830 833 834 836 837 838 839 840 840 841 843 843 843 844 844 845 845 846 846 847 846 847 847 847 847 847 847 846 846 846 846 846 847 847 847 847 847 847 847 847 848 848 849 849 850 851 852 852 853 854 854 855 855 856 856 855 855 855 856 856 857 858 859 860 861 861 861 861 861 861 861 862 862 862 863 863 863 864 864 864 864
821 824 827 829 831 834 835 837 838 839 840 840 841 842 844 844 844 845 845 846 846 847 847 847 847 848 848 848 848 849 849 848 849 849 849 848 848 848 848 848 848 848 848 849 849 850 850 851 852 852 853 853 854 855 856 856 857 857 857 856 856 856 857 858 858 859 860 860 861 862 862 862 862 862 863 863 863 864 864 864 864 865 865 865 865
822 824 827 830 832 834 836 837 838 840 840 841 842 843 844 844 845 845 846 847 847 847 847 848 848 849 849 849 850 850 851 851 851 851 851 850 850 850 850 850 849 849 849 850 850 851 852 852 853 853 854 854 855 856 857 857 858 858 858 858 858 857 858 859 859 860 860 861 862 863 863 864 864 864 864 864 865 865 865 865 865 866 866 866 865
823 825 827 830 832 834 836 837 839 840 841 842 842 843 845 845 846 846 847 847 847 848 848 848 849 850 850 851 851 852 852 852 852 852 852 852 852 851 851 851 851 851 850 850 852 852 853 854 854 854 854 855 856 857 857 858 858 859 859 859 859 858 860 860 860 861 862 863 864 864 865 865 865 865 865 865 866 866 866 866 866 866 866 866 866
823 825 827 830 832 834 836 838 839 841 842 843 843 844 845 846 846 847 847 847 848 848 848 849 850 851 852 852 853 852 853 853 853 853 853 853 853 852 852 852 852 852 851 852 853 854 854 854 855 855 855 857 857 858 859 859 859 859 860 860 860 859 860 861 861 862 863 864 865 865 866 866 866 866 866 866 867 867 867 867 867 867 867 867 867
824 826 827 830 832 835 836 838 840 841 843 843 844 845 846 847 847 848 848 848 849 849 849 850 850 852 852 853 853 853 853 853 853 853 854 854 854 854 853 853 853 853 853 853 854 854 855 855 855 856 857 858 858 859 859 859 860 860 861 862 861 860 861 862 862 863 864 865 866 866 866 866 867 867 867 867 868 868 868 868 868 868 868 868 868
824 826 828 830 832 835 836 838 840 841 843 844 844 846 847 847 848 849 849 849 849 850 850 851 851 852 853 854 854 854 854 854 855 855 855 855 855 855 855 854 854 854 855 855 855 855 856 856 857 857 858 859 859 860 860 860 860 861 862 861 861 861 862 863 863 864 865 865 866 867 867 867 867 868 868 868 868 868 869 869 869 868 868 868 868
825 826 828 830 832 835 836 838 840 842 843 844 845 846 847 848 849 850 850 850 850 851 851 852 853 853 854 855 855 855 856 856 856 856 856 856 856 856 856 856 856 856 856 856 857 857 857 857 858 859 859 860 860 860 861 861 861 862 862 861 861 862 863 864 864 865 865 866 867 867 867 868 868 868 869 869 869 869 869 869 869 869 869 869 869
825 827 829 831 833 835 837 839 840 842 843 844 845 846 848 848 849 850 850 851 851 852 852 853 854 854 855 855 855 856 856 857 857 857 857 857 857 857 857 857 858 858 858 858 858 858 859 859 860 860 860 860 860 861 861 861 862 862 862 861 862 863 864 864 864 865 866 867 867 867 868 868 869 869 869 869 869 869 869 870 869 869 869 869 869
825 827 829 831 833 835 837 839 840 841 843 845 846 846 848 849 849 849 850 852 852 853 853 854 854 854 856 855 856 857 857 858 857 857 857 858 859 858 858 859 859 859 859 859 860 860 861 861 861 861 861 861 861 862 862 862 862 861 861 862 863 864 864 865 865 865 866 867 867 867 868 868 869 869 870 870 870 870 870 870 870 870 870 870 870
825 827 829 831 833 835 837 839 840 841 843 846 847 847 848 849 849 850 851 852 852 853 853 854 855 855 856 857 857 858 859 858 858 858 859 860 860 860 860 860 860 860 860 861 861 861 862 862 862 862 861 861 862 862 862 862 862 862 862 863 863 864 864 865 865 866 867 867 867 868 868 869 869 869 870 870 870 870 870 870 870 870 870 870 870
825 827 829 831 833 835 838 839 841 842 843 845 847 847 848 849 849 850 851 850 852 853 853 854 855 855 855 857 858 859 859 858 859 860 861 862 862 862 862 862 861 861 861 861 861 861 862 862 862 862 862 862 862 862 862 862 862 862 862 863 863 864 864 865 866 867 867 867 867 868 868 869 869 869 870 870 870 870 870 870 870 870 870 870 870
825 828 829 832 834 836 838 839 841 842 843 844 846 848 849 850 850 850 850 850 852 852 853 854 854 855 855 856 857 858 858 858 859 860 860 861 862 863 863 864 863 861 861 861 861 861 862 862 862 862 862 862 863 862 862 862 862 862 863 863 864 864 865 865 866 867 867 867 867 868 868 869 869 869 870 870 870 870 870 870 870 870 870 870 870
825 828 830 833 834 835 838 839 841 843 844 845 846 847 849 850 850 849 850 851 852 853 853 854 854 855 855 856 856 857 858 858 859 859 859 859 860 862 863 864 863 863 863 862 862 862 862 862 863 863 863 863 863 863 863 863 863 863 864 864 865 865 865 866 867 867 868 868 867 868 868 869 869 869 870 870 870 870 870 870 870 870 870 870 870
826 828 831 833 834 836 838 840 841 843 844 845 846 846 848 849 850 850 851 852 852 853 854 854 855 856 856 857 857 857 858 858 859 859 858 859 860 860 861 862 862 863 864 863 863 864 863 863 863 864 863 863 863 863 863 863 864 864 865 865 865 866 866 866 867 867 868 868 868 868 868 869 869 869 869 870 870 870 870 870 870 870 870 869 869
825 828 830 832 834 836 838 840 841 843 844 845 846 847 848 849 850 851 852 853 853 854 854 855 856 857 857 857 857 857 858 858 858 859 858 858 859 859 860 861 861 862 863 863 863 864 864 864 864 864 865 864 864 864 863 863 864 864 865 865 866 866 867 867 868 868 868 869 868 868 868 868 869 869 869 870 870 870 870 870 870 870 870 870 869
825 827 830 832 834 836 838 840 841 843 845 846 847 847 849 849 851 852 853 853 854 855 855 855 856 857 858 858 858 858 858 858 858 859 859 859 860 860 860 861 862 862 863 863 863 864 865 865 865 865 866 865 865 864 863 864 864 865 865 865 866 866 867 868 868 868 869 869 869 868 868 868 869 869 869 869 869 870 870 870 870 870 870 870 869
824 826 829 832 834 836 837 840 842 843 845 846 847 848 849 850 851 852 853 854 855 855 855 856 857 857 858 859 859 859 859 859 860 860 860 859 860 861 861 862 862 863 863 864 865 865 865 866 866 866 866 866 866 864 864 864 864 865 865 866 866 867 867 868 868 868 868 869 869 869 869 869 869 869 869 869 869 869 869 869 870 870 870 869 869
824 826 829 832 834 835 837 840 842 843 845 846 847 849 849 850 852 852 853 854 855 856 856 857 858 858 859 859 860 860 860 861 861 862 861 861 861 861 862 862 863 864 864 865 866 867 867 867 867 867 867 866 866 865 865 864 865 865 866 866 867 867 868 868 867 867 868 869 870 870 869 869 869 869 869 869 869 869 870 869 870 869 869 869 869
823 825 829 831 833 835 838 840 842 844 845 847 848 849 850 851 852 852 853 854 855 856 856 858 858 859 859 860 860 861 862 862 862 863 862 862 862 863 863 863 864 865 865 866 866 867 868 868 867 867 867 866 866 866 866 865 865 866 866 867 867 868 868 868 868 868 868 869 870 870 870 870 870 870 870 870 870 870 870 870 869 869 869 869 869
822 825 829 831 833 835 838 840 842 844 845 847 848 848 850 851 852 853 854 854 855 856 856 858 859 859 860 860 861 862 862 863 863 863 863 863 863 864 864 865 865 866 866 866 867 867 868 868 867 868 868 867 866 866 866 866 866 866 866 867 867 868 868 868 868 868 869 869 870 870 871 871 870 870 870 870 870 870 870 870 869 869 869 869 869
821 825 828 830 833 835 837 839 841 844 845 846 848 849 850 851 852 853 854 855 855 855 856 857 858 860 861 861 862 862 863 863 864 864 863 864 864 864 865 866 866 867 867 867 867 868 868 868 868 868 868 868 867 867 867 867 867 867 867 867 868 868 868 868 868 869 869 869 870 870 871 871 871 871 870 870 870 870 870 869 870 869 869 869 869
821 825 828 830 833 835 837 839 841 843 844 846 848 849 850 851 852 853 854 855 855 855 856 857 858 859 861 862 862 863 864 864 864 864 864 864 864 865 866 867 868 868 868 868 868 868 868 869 869 869 869 868 868 868 868 868 868 868 868 868 868 868 868 868 868 868 869 870 870 870 871 871 871 871 870 870 870 870 870 870 870 869 869 869 869
821 824 827 830 832 834 837 838 841 843 844 846 848 849 850 851 852 853 854 855 855 855 856 857 858 859 860 862 863 863 864 865 865 865 864 865 865 866 867 868 868 868 869 869 869 869 869 869 869 869 869 869 868 868 868 868 868 868 868 868 869 868 868 869 869 869 870 870 870 870 870 870 870 870 869 870 870 869 870 870 870 869 869 869 869
822 824 827 830 831 834 836 838 840 842 844 846 847 849 850 852 852 853 854 854 855 856 856 857 858 859 860 861 863 864 865 865 865 865 865 865 866 866 867 868 869 869 869 869 869 869 869 870 870 870 870 869 868 868 868 868 868 867 867 868 869 869 869 869 869 870 870 870 870 870 870 870 869 869 869 869 869 869 869 869 869 869 869 869 869
821 824 827 829 831 834 836 838 840 842 844 846 847 849 850 851 852 853 854 855 855 855 857 857 858 859 860 861 862 863 865 865 866 866 865 866 866 867 868 868 869 869 869 869 870 870 870 870 870 870 870 870 869 869 869 869 868 868 868 868 869 869 869 870 870 870 870 870 870 869 869 869 869 869 870 869 869 869 869 869 869 869 869 869 869
820 823 826 829 830 833 835 837 840 841 843 845 847 848 849 851 852 853 854 855 855 856 857 858 858 859 860 861 862 863 864 865 866 866 866 866 867 867 868 868 869 869 869 870 870 870 870 870 870 870 870 870 870 870 869 869 869 869 869 869 870 870 870 870 870 870 870 869 869 869 869 869 869 869 869 869 869 869 869 870 869 869 869 869 869
820 823 826 828 830 832 834 836 839 841 842 844 846 847 848 850 851 852 853 854 855 856 856 857 858 859 860 861 862 863 864 865 866 866 867 867 867 868 868 868 869 869 870 870 870 870 870 871 871 871 871 870 870 870 870 870 870 870 870 869 869 869 870 870 870 869 869 869 869 869 868 868 868 869 868 868 869 869 869 869 869 869 870 869 868
819 822 824 827 829 831 833 835 837 840 841 843 844 846 847 848 850 851 852 853 854 855 856 857 858 859 860 861 862 863 864 865 866 866 867 867 867 868 868 868 869 869 870 870 870 871 871 871 871 871 870 870 870 870 870 870 870 870 870 870 870 870 870 869 869 868 868 869 869 869 868 867 867 867 867 868 868 868 868 868 869 869 869 869 868
817 820 823 825 828 830 832 834 836 838 840 842 843 845 846 847 849 850 851 852 853 855 856 856 858 859 860 861 862 863 864 865 866 866 867 867 868 868 868 869 869 869 870 870 871 871 871 871 871 871 870 870 870 870 871 870 870 870 870 871 871 871 871 870 868 867 867 867 867 868 868 867 867 867 867 867 867 867 868 868 869 869 869 869 868
815 818 821 823 826 828 831 833 835 837 839 841 843 844 846 847 849 850 851 852 853 854 856 857 858 858 859 861 862 862 863 864 865 866 867 867 868 868 868 869 869 869 870 870 870 871 871 871 871 871 870 870 870 871 871 871 870 870 871 872 870 871 875 871 866 866 866 866 866 866 867 866 866 867 867 866 866 866 867 867 868 869 869 868 868
812 815 818 820 823 826 829 831 834 836 838 840 842 843 845 847 848 850 851 852 853 854 855 856 857 858 859 860 861 862 863 864 865 866 866 867 868 868 869 869 869 869 869 870 870 870 871 871 871 871 871 871 871 871 871 871 871 871 871 872 872 875 875 869 867 868 866 864 865 865 866 865 865 867 866 866 866 866 866 867 868 868 868 868 868
809 812 815 818 821 824 827 830 832 834 836 838 840 842 844 846 847 849 850 851 853 853 854 856 856 858 858 859 861 862 863 863 864 865 866 867 868 868 869 869 869 870 870 870 870 870 870 871 871 872 871 872 872 872 872 871 871 872 871 871 872 874 873 870 870 871 867 864 864 864 865 864 864 865 865 865 865 865 866 866 867 867 868 868 867
807 810 812 815 818 822 825 828 830 832 835 837 839 841 842 844 846 847 849 850 851 852 854 855 856 857 857 858 860 861 862 863 864 865 866 867 868 868 869 869 869 870 870 870 869 870 870 871 871 872 872 872 873 872 872 872 872 872 871 870 871 871 871 871 871 871 870 868 865 862 863 864 864 864 864 864 864 865 866 866 866 867 867 868 867
805 808 810 813 816 820 823 826 828 831 833 835 837 839 841 843 844 846 847 849 850 851 853 854 855 856 857 858 859 860 862 862 863 864 865 867 867 868 869 869 869 869 870 870 869 869 870 871 871 872 872 873 873 873 872 872 872 871 871 871 871 871 871 871 870 870 871 870 867 863 863 863 863 864 864 863 864 865 866 867 866 866 867 868 867
803 806 808 811 815 818 821 824 827 829 831 833 836 837 839 841 843 845 846 847 849 850 852 853 855 856 856 858 859 860 861 862 863 864 865 866 867 867 868 868 869 869 869 869 869 870 870 871 871 872 873 873 873 873 873 873 872 871 871 871 872 871 871 870 870 869 868 870 869 864 864 864 863 864 865 864 864 865 865 866 866 866 867 867 867
802 806 807 810 814 817 820 823 825 828 830 832 834 836 838 840 842 843 845 846 848 849 851 852 854 855 856 857 858 859 860 861 862 863 864 865 866 867 867 868 869 868 869 869 870 870 870 871 871 872 872 873 873 873 873 873 873 872 871 872 872 872 872 871 869 868 868 869 868 863 863 863 863 864 866 865 865 865 865 866 866 866 867 867 867
802 806 808 809 812 815 818 821 823 826 828 830 833 835 837 838 840 842 843 845 847 848 849 851 853 854 855 857 858 859 859 860 861 862 863 864 865 866 867 867 868 867 868 869 869 870 870 871 871 871 872 872 873 873 873 873 873 873 872 872 873 872 872 872 870 870 869 869 868 864 862 863 863 864 866 866 866 866 866 866 865 866 867 867 867
Wind_Speed
14 15 16 15 15 14 14 15 16 15 15 15 14 15 16 17 17 16 15 14 12 11 10 10 10 11 11 11 10 9 8 7 7 8 8 8 8 8 9 9 10 10 11 13 13 14 13 15 17 16 16 17 16 16 15 14 14 17 18 17 19 20 20 17 17 18 12 13 19 22 23 22 21 20 20 18 17 17 16 16 16 19 20 18 17
18 18 17 17 16 14 15 16 16 15 15 15 16 17 17 17 16 15 13 12 11 10 10 10 11 12 12 11 10 9 9 9 9 9 9 10 10 10 10 11 11 11 12 13 14 14 14 15 16 16 16 16 16 16 16 15 14 15 17 17 19 19 19 18 17 18 13 13 18 21 22 21 19 19 19 17 16 16 16 16 16 19 19 17 17
21 19 18 19 18 15 15 16 15 15 16 17 18 18 16 15 14 13 12 11 10 10 11 11 13 13 12 11 10 11 11 11 12 11 11 12 12 12 12 12 12 13 13 13 14 14 14 15 17 17 15 15 15 15 16 16 14 14 16 18 19 18 19 19 18 18 13 13 18 21 23 21 20 19 19 18 17 17 17 18 18 19 18 17 16
21 19 19 19 18 16 15 16 17 17 19 18 18 16 15 15 14 12 11 11 10 11 13 13 14 13 12 12 11 11 11 12 12 12 12 13 13 13 13 12 12 14 14 13 14 14 14 15 16 16 14 14 14 14 15 15 15 15 16 17 19 18 19 19 18 18 13 12 17 20 21 21 20 19 19 19 18 18 18 19 18 19 17 17 17
20 18 18 19 18 17 17 19 19 18 18 17 16 15 16 15 13 12 11 11 10 11 14 14 13 13 13 12 11 11 11 12 13 14 14 13 13 13 13 13 13 14 14 13 14 14 14 15 15 15 14 14 14 15 15 14 16 16 16 17 18 18 18 19 18 18 13 11 16 18 19 19 20 19 18 19 19 19 18 18 18 17 17 17 18
21 19 18 19 18 18 20 20 19 17 17 16 16 15 16 14 12 11 11 11 11 12 14 14 14 13 13 12 12 12 12 13 14 15 14 14 14 13 13 13 13 14 14 13 13 14 15 16 15 13 13 14 15 16 15 14 16 17 17 17 18 18 18 19 18 17 13 11 15 16 18 19 20 19 18 19 19 18 18 18 17 16 16 17 18
24 23 19 19 18 20 22 21 19 17 16 15 15 15 15 13 12 11 11 12 12 13 14 14 14 13 14 13 12 13 13 14 15 15 14 13 13 14 14 14 14 14 14 14 13 14 15 16 15 14 14 14 15 16 16 15 16 18 19 16 14 16 18 19 17 15 12 11 14 15 17 17 19 19 18 18 18 17 17 17 17 16 16 16 17
25 24 21 19 19 22 23 21 18 16 16 15 15 15 14 12 12 12 13 13 13 13 14 14 14 13 13 13 13 14 14 14 15 15 14 14 13 14 15 15 15 14 14 14 13 14 14 15 15 14 15 15 15 16 17 15 16 19 21 15 11 15 18 19 17 15 14 12 14 15 16 17 18 19 18 18 17 16 16 16 16 16 16 15 16
23 22 21 21 22 24 22 20 18 17 15 15 16 15 13 11 12 13 14 13 13 13 13 13 13 13 13 13 13 14 14 15 15 15 15 14 14 14 14 15 15 14 15 14 14 14 14 15 15 15 14 14 15 16 16 15 16 19 20 15 12 16 18 18 18 16 14 12 14 15 16 17 17 18 17 16 16 15 15 15 16 16 15 15 16
22 21 21 22 25 24 21 19 17 17 15 16 16 14 13 12 13 13 14 13 13 13 13 13 13 13 13 13 13 14 15 16 15 15 15 14 14 14 14 15 14 14 14 14 14 14 14 15 15 15 14 13 15 15 15 15 16 18 18 16 15 16 18 20 19 16 14 14 15 15 16 16 17 17 16 15 15 14 14 15 16 16 15 15 15
22 21 22 22 24 23 20 18 16 16 16 16 15 14 14 13 14 13 14 14 13 13 13 13 13 14 14 13 14 14 15 16 16 15 14 14 14 14 14 13 13 13 14 14 14 15 15 15 15 14 14 14 15 15 14 15 16 17 17 17 16 16 19 20 18 17 14 14 15 15 16 17 17 17 15 15 14 14 14 14 15 15 14 14 14
24 23 23 23 22 20 18 17 16 17 17 16 14 14 14 14 15 13 14 14 13 13 13 14 13 14 15 15 14 14 16 16 15 14 15 15 14 15 15 14 14 14 14 14 15 15 15 16 16 14 14 14 15 15 15 15 16 16 17 17 17 16 18 18 18 18 16 16 16 15 16 17 17 16 15 15 15 14 14 14 14 14 14 13 13
27 24 24 23 20 19 18 18 18 18 17 15 14 14 14 14 14 14 13 13 13 14 14 14 13 14 15 15 14 15 16 16 15 15 15 15 15 15 15 15 15 15 16 16 15 15 16 16 16 15 15 16 15 15 15 15 15 15 16 17 17 17 17 16 15 16 16 17 18 16 16 16 16 16 16 16 15 14 13 13 14 13 13 12 12
27 25 23 22 21 20 19 20 19 18 17 15 15 14 14 15 14 14 13 13 14 15 15 14 14 15 15 14 15 16 16 16 16 16 15 14 15 15 15 16 16 16 16 16 16 16 17 17 17 17 16 16 15 14 15 15 15 15 16 17 16 15 15 15 14 15 15 16 18 16 17 17 16 16 16 15 14 13 13 13 13 12 12 12 12
27 25 23 22 22 21 21 20 18 18 17 16 14 13 15 15 15 15 13 13 14 15 14 13 14 15 14 14 15 16 16 16 16 16 15 14 15 15 15 16 17 17 16 16 16 17 18 17 17 17 17 16 15 14 15 15 14 14 15 17 16 13 12 13 14 15 15 16 17 16 17 16 16 15 15 14 13 12 12 12 12 12 11 11 11
25 24 23 23 22 21 20 19 18 18 17 15 14 13 15 15 14 14 14 14 14 14 13 14 14 14 14 14 15 16 16 16 16 16 15 15 15 16 16 16 17 17 17 17 17 17 18 17 17 17 17 16 16 15 15 15 14 14 16 17 17 14 12 12 13 14 15 16 16 16 16 14 14 14 13 13 12 12 11 11 11 11 11 11 11
22 23 23 23 21 20 20 20 19 18 17 15 14 13 14 14 14 14 14 13 14 14 13 14 14 14 14 14 15 15 15 15 15 16 16 15 16 16 16 16 17 16 17 17 17 17 17 17 17 16 16 16 16 16 15 16 16 15 16 17 17 16 14 13 13 14 15 15 15 15 14 13 13 13 12 11 11 11 11 11 10 10 10 11 11
23 22 22 22 21 19 19 20 19 18 17 15 14 13 14 14 14 14 14 13 13 14 14 14 15 15 15 15 16 16 15 15 15 16 16 16 16 17 16 16 16 17 18 17 16 16 17 17 16 16 17 17 16 16 15 16 17 16 16 17 18 18 16 13 13 14 15 15 15 14 13 12 12 11 11 10 10 10 10 10 10 10 10 10 10
22 21 20 21 19 19 20 19 19 18 16 15 14 13 13 14 13 13 14 14 13 13 14 15 16 16 15 16 16 16 15 15 15 15 16 16 16 16 17 17 17 17 18 17 17 17 17 18 17 18 18 18 17 17 16 16 17 16 16 17 17 18 15 13 12 13 13 14 14 13 12 11 11 10 10 9 9 8 8 8 8 8 9 9 9
19 19 18 18 18 19 19 17 16 16 16 15 15 14 14 13 13 13 14 15 14 14 15 15 16 16 16 16 17 17 16 16 15 15 17 16 14 16 17 18 18 18 18 18 18 19 19 19 19 19 19 18 18 17 16 16 16 16 15 14 14 14 12 11 11 12 12 13 13 13 12 11 10 10 9 9 8 8 8 7 7 7 7 8 8
17 17 16 17 17 19 18 16 14 14 15 15 14 14 14 14 13 14 14 15 15 15 16 16 16 16 16 15 17 16 15 16 14 14 16 15 14 15 17 18 18 18 19 19 19 20 20 20 20 20 19 18 18 18 16 16 16 15 14 13 12 10 9 10 11 11 12 12 13 12 11 10 10 10 9 8 8 8 7 7 7 7 7 7 7
17 16 16 16 16 18 17 16 15 14 14 14 14 14 14 14 13 13 14 15 14 15 15 15 14 15 14 14 16 14 15 16 14 14 15 14 14 14 16 17 17 18 18 19 19 19 19 19 19 18 17 17 17 15 15 15 15 15 14 12 10 9 9 9 10 11 11 12 12 11 10 10 9 8 8 8 8 7 7 7 7 7 6 6 6
17 16 16 15 15 17 16 16 16 14 13 13 13 14 14 14 13 13 14 14 13 13 13 13 12 12 12 14 16 12 13 14 11 14 15 14 14 14 15 16 17 18 18 18 18 17 16 16 14 13 13 13 11 9 10 10 10 11 12 10 9 8 8 8 9 10 11 11 11 10 9 9 8 7 7 7 7 7 7 6 6 6 6 5 5
16 15 16 15 15 16 16 16 15 14 14 14 13 13 14 13 13 12 11 12 12 11 11 12 11 10 11 15 16 13 14 15 14 14 14 14 14 14 15 16 17 16 16 16 15 14 13 12 12 11 9 8 8 7 8 7 6 7 8 9 8 8 8 8 8 10 11 11 10 8 8 8 7 7 6 6 6 6 6 6 6 5 5 5 4
16 15 15 15 15 15 15 15 14 13 13 15 14 13 13 13 14 13 11 12 11 10 10 10 10 8 11 15 15 15 15 15 16 15 13 13 14 14 13 13 14 12 12 11 10 10 10 9 9 10 7 6 7 7 7 7 7 8 8 8 7 7 7 8 8 9 10 9 8 7 7 6 6 6 5 5 5 5 5 5 5 5 4 4 4
16 14 15 15 15 14 14 14 14 12 11 12 13 14 15 15 14 13 11 11 9 9 9 9 9 8 9 13 13 14 14 13 14 13 13 14 13 14 13 11 11 10 9 8 7 7 8 7 7 8 7 7 8 7 7 8 8 9 8 8 7 7 7 8 8 8 9 8 7 7 6 6 5 5 5 4 3 3 4 4 4 4 3 3 4
15 15 15 14 15 14 14 13 13 12 9 10 11 12 14 15 13 11 10 9 9 8 9 9 8 7 8 9 10 13 12 11 11 10 10 11 11 13 14 13 12 12 10 8 8 7 7 7 7 7 7 8 8 8 7 7 8 8 8 7 7 7 7 8 7 8 9 7 6 6 6 6 5 5 4 4 3 2 2 2 2 2 2 3 3
15 15 15 14 14 15 14 14 13 12 10 9 9 9 10 11 11 9 9 9 9 8 9 9 8 7 7 7 8 11 12 12 11 9 9 9 9 10 10 11 11 11 11 9 9 9 8 8 8 7 7 7 7 7 7 7 7 7 8 7 7 7 7 8 7 7 8 7 5 4 5 5 5 5 4 4 2 1 1 1 1 1 2 2 3
16 16 15 14 14 15 14 14 13 12 11 10 9 9 9 9 9 9 10 8 8 9 9 9 8 8 7 6 6 8 10 11 10 9 8 9 8 8 8 9 9 9 9 9 9 9 9 9 8 7 6 6 6 6 6 7 7 7 7 7 7 7 7 7 6 6 7 8 6 4 4 5 4 5 4 4 3 2 1 0 1 2 2 2 3
17 16 15 14 14 14 14 14 13 12 11 10 9 9 9 9 10 10 9 8 9 10 9 8 8 8 7 5 5 6 8 9 10 10 8 8 8 9 9 8 8 9 9 9 8 9 10 8 8 7 5 5 5 4 5 7 6 6 6 7 7 7 7 7 6 6 7 7 6 5 5 5 4 4 3 3 2 2 2 1 0 1 1 1 2
17 16 15 14 14 15 15 14 13 12 11 10 10 10 9 9 10 10 9 9 9 9 8 8 7 7 7 6 6 6 7 9 9 9 7 7 8 8 7 8 8 8 8 8 7 8 9 7 8 7 4 5 6 3 4 6 6 6 6 6 6 7 6 6 6 7 7 7 6 5 5 6 5 4 3 2 2 1 1 1 1 1 1 2 2
17 16 15 14 14 15 15 14 14 13 11 10 11 10 9 10 10 10 9 9 9 8 8 8 8 8 8 7 6 6 8 8 8 7 6 6 7 7 7 7 7 7 7 8 7 7 8 8 6 4 3 4 5 3 4 5 5 6 6 6 6 6 5 4 5 7 7 6 6 5 4 4 5 4 4 3 2 1 1 0 1 1 2 2 3
17 16 16 15 15 15 15 14 14 13 11 11 11 10 10 10 9 9 10 10 8 8 9 8 8 8 7 7 6 6 7 7 7 6 5 6 6 6 7 6 6 7 7 7 6 6 7 7 6 5 3 3 4 4 3 5 5 5 6 6 5 5 5 4 5 5 6 6 6 5 5 3 2 3 3 3 2 1 1 1 2 2 3 3 4
16 16 16 16 15 15 15 13 14 13 12 11 10 10 10 9 9 9 10 9 8 8 9 9 9 9 7 7 6 6 6 6 5 4 4 6 6 5 6 6 5 6 6 5 5 5 4 4 5 5 3 2 3 4 3 4 4 4 5 5 5 5 4 5 5 4 5 6 5 5 5 5 3 1 2 3 3 2 2 3 3 3 4 4 4
16 17 17 17 15 15 14 13 14 13 12 11 10 10 10 10 9 9 9 8 8 9 9 9 9 9 8 7 6 6 6 6 5 4 3 4 6 6 5 6 5 4 5 4 4 4 3 3 4 4 2 2 3 4 3 4 4 4 4 5 5 4 4 5 4 4 5 5 5 4 4 4 4 3 2 1 2 3 3 2 3 3 3 4 4
16 17 17 16 16 15 14 14 15 14 13 12 10 10 9 9 8 9 9 7 8 8 9 9 8 9 9 7 7 6 6 6 4 3 3 3 4 6 5 6 5 4 5 3 2 3 2 3 3 3 2 1 2 4 3 4 4 4 3 4 4 3 3 4 3 4 5 4 4 4 4 3 3 3 3 2 1 1 4 3 3 3 3 4 4
16 17 17 16 16 16 14 14 15 14 13 12 11 10 9 9 8 9 8 8 7 8 8 9 8 8 9 8 7 6 6 6 4 3 4 4 3 6 6 6 5 4 4 2 3 3 2 3 2 2 2 1 2 5 3 3 3 3 3 3 3 2 3 3 2 4 4 3 2 3 3 4 4 3 3 3 3 1 3 4 4 3 4 5 4
17 17 17 16 16 16 14 14 15 14 13 12 11 10 9 9 8 9 8 7 7 8 8 8 8 8 8 8 7 6 6 5 4 3 4 4 4 5 6 5 5 5 4 3 4 3 2 4 3 3 2 1 1 4 3 3 2 3 3 3 2 1 2 3 2 3 3 3 3 3 3 2 3 3 1 1 2 2 2 4 4 3 3 5 5
17 17 17 16 15 15 14 14 14 14 14 12 11 11 10 9 9 9 9 7 6 7 8 7 7 7 8 9 8 7 6 5 5 3 2 3 4 5 5 5 5 4 3 3 4 3 2 2 3 3 2 0 1 2 3 2 2 3 3 3 3 1 2 2 2 2 2 3 2 3 3 2 2 2 2 2 2 3 2 2 4 4 3 4 6
17 18 18 16 15 16 15 15 14 14 14 13 12 11 11 10 9 10 10 8 7 7 7 7 7 8 8 9 7 6 6 5 4 3 1 2 4 6 5 4 5 4 2 3 4 3 2 1 2 2 2 2 1 1 2 2 2 3 3 2 2 1 1 1 2 3 3 4 2 1 2 3 2 2 2 2 1 1 2 1 2 3 2 4 6
17 18 18 17 16 16 16 16 15 14 14 13 12 12 11 11 11 11 10 10 9 7 7 7 7 8 9 9 8 6 6 5 4 4 3 3 4 5 5 4 4 4 3 3 3 3 2 1 2 2 2 2 2 1 2 2 2 2 1 1 1 1 2 2 3 4 4 4 3 1 1 2 3 2 3 2 1 0 1 2 1 1 1 4 7
19 19 19 18 17 16 17 17 16 15 14 13 13 12 12 11 11 10 10 10 10 8 8 7 7 9 9 8 8 7 7 6 5 4 4 4 4 5 5 4 4 5 4 3 4 3 1 1 1 2 2 2 1 1 2 1 1 2 2 1 2 2 1 2 3 5 5 5 5 4 2 3 3 2 3 2 2 2 1 1 0 1 1 4 4
20 20 19 19 18 17 17 16 16 16 14 13 13 12 12 11 10 10 9 9 10 9 7 7 7 8 9 8 7 8 7 6 6 5 4 4 3 4 5 5 4 4 4 4 4 3 2 1 1 1 2 2 2 2 2 1 2 2 2 1 1 2 1 1 3 4 4 4 6 5 3 3 3 1 1 2 3 2 1 1 1 1 2 3 3
20 21 20 20 19 18 18 17 17 16 15 14 13 12 12 11 10 9 8 7 8 9 7 7 7 7 9 9 7 8 7 6 6 5 4 4 4 3 3 4 4 4 4 4 4 3 3 2 1 1 1 2 2 3 2 1 3 2 1 0 0 1 2 2 4 4 3 4 5 5 2 3 4 2 2 2 1 1 1 2 1 1 2 2 3
21 22 22 21 20 19 19 19 18 17 16 16 15 13 12 12 10 10 9 7 7 9 8 8 8 7 8 9 8 8 7 6 6 5 5 5 4 3 2 3 4 4 4 4 4 3 4 3 2 2 1 1 2 2 1 1 2 2 1 1 1 1 2 1 2 1 2 4 5 5 2 3 4 2 2 1 0 2 1 2 1 2 2 2 3
21 22 23 22 21 21 21 20 19 18 17 17 16 14 14 14 12 11 11 9 9 10 9 9 9 8 8 8 9 8 7 6 6 6 5 5 5 3 3 3 3 4 3 2 3 4 4 4 3 3 1 1 2 1 1 1 2 1 1 2 1 2 2 2 1 1 2 1 2 5 3 2 4 3 2 3 2 0 1 1 1 2 2 1 2
21 21 22 22 22 21 22 21 19 18 18 18 18 16 15 15 14 13 12 11 10 10 10 9 9 8 8 8 8 8 8 7 7 7 6 6 5 5 4 3 3 4 3 3 4 4 5 4 4 2 1 2 1 1 1 1 1 1 1 2 1 2 2 1 0 1 1 2 3 2 5 3 3 4 1 2 3 3 3 1 0 2 2 2 2
21 21 21 22 22 22 23 22 20 19 18 19 20 18 16 15 15 14 12 12 11 10 10 10 8 7 8 7 7 8 8 7 7 8 7 6 6 5 5 4 4 4 4 4 4 3 4 4 3 2 1 2 1 2 1 1 1 1 1 1 2 2 1 1 1 1 1 1 1 0 3 2 3 3 1 1 3 3 2 0 2 2 3 2 2
21 21 21 22 22 22 23 22 21 19 19 20 20 19 17 15 15 14 12 11 11 10 11 11 9 8 8 8 7 7 8 8 7 8 8 7 7 6 5 5 4 4 5 5 4 3 3 3 3 3 2 2 2 2 2 2 3 0 1 1 2 1 1 1 2 2 1 1 1 1 3 1 1 3 1 2 3 1 2 2 1 2 3 2 2
21 20 20 21 22 23 23 23 21 20 20 21 21 20 18 16 15 15 13 12 11 10 10 11 10 8 8 8 8 7 8 9 8 8 8 8 8 7 6 6 5 5 5 4 4 4 3 4 4 3 3 3 2 3 3 3 4 3 0 0 1 1 1 1 3 1 2 1 3 1 4 2 2 3 1 2 1 0 2 1 2 3 2 2 3
18 18 19 20 22 22 23 23 22 20 21 21 21 21 19 17 16 16 15 14 12 11 10 12 12 10 10 10 9 8 8 8 9 8 9 9 8 7 7 6 6 6 4 3 4 5 5 5 5 4 4 3 3 3 4 4 3 3 2 1 2 2 1 1 2 2 1 1 3 2 1 2 2 2 2 1 2 1 1 1 1 3 2 2 3
Wind_Direction
130 131 129 131 123 117 121 126 125 123 124 123 119 111 105 103 103 102 98 96 101 108 114 119 118 111 101 96 96 94 92 94 97 105 107 99 99 97 95 97 96 95 95 96 90 89 90 90 93 94 96 98 100 97 88 84 86 90 90 91 92 96 100 100 102 104 100 100 102 102 102 98 96 94 92 88 87 86 86 85 84 82 79 78 76
136 133 131 132 123 122 126 124 124 123 124 119 114 111 107 105 104 101 101 107 112 118 125 124 116 108 104 103 101 97 94 94 98 104 103 96 96 96 93 96 96 93 92 92 91 89 88 90 94 94 94 98 100 96 93 90 86 87 89 89 91 97 101 101 101 101 104 104 102 103 101 97 94 92 91 89 89 90 90 87 84 82 80 79 76
134 132 134 135 130 133 131 125 126 121 118 114 112 110 108 106 105 108 116 121 121 126 123 111 105 103 100 96 93 91 92 98 100 99 97 94 93 92 90 93 95 91 88 87 90 90 89 91 94 94 95 96 96 95 94 94 90 85 87 87 90 96 99 99 99 100 104 106 103 102 100 97 92 90 91 93 93 96 95 89 85 84 82 80 77
132 131 135 137 133 136 131 126 125 119 116 114 112 110 110 109 111 121 126 123 121 119 109 101 99 99 98 93 91 92 95 98 97 94 92 90 88 87 87 90 93 93 91 90 93 95 92 92 95 97 99 100 98 95 93 94 92 87 86 87 91 95 97 98 100 103 105 106 102 98 97 95 92 89 91 92 92 93 91 87 85 85 83 80 78
131 131 135 134 133 136 131 125 126 123 118 114 113 114 113 111 118 125 121 116 113 105 99 96 97 100 103 101 98 99 99 95 93 90 87 87 87 88 91 91 91 93 95 93 94 97 96 93 95 100 105 105 102 98 94 93 93 90 90 89 92 95 96 98 98 100 101 102 98 96 97 95 93 90 89 90 89 89 88 87 85 85 82 80 78
134 135 136 132 133 136 132 128 127 123 118 116 115 115 112 115 123 121 115 112 105 98 96 99 103 107 108 104 101 102 97 91 90 88 87 88 89 89 90 90 89 89 91 93 94 95 98 97 96 101 104 103 101 101 97 94 95 94 91 90 96 100 97 94 91 92 94 94 92 94 96 95 94 90 88 89 89 89 88 87 85 84 82 80 79
137 137 137 134 136 135 131 127 123 121 120 116 114 114 115 122 124 117 115 108 101 99 100 102 103 103 103 103 102 100 95 92 91 89 90 90 90 89 87 85 84 86 90 93 94 94 97 97 100 104 103 102 101 100 96 95 96 95 92 92 104 106 98 94 91 90 87 88 91 91 94 96 94 91 89 88 90 91 91 89 86 82 80 78 78
134 135 134 134 135 133 128 123 121 123 120 115 117 118 120 124 121 117 113 104 103 101 100 101 101 101 102 103 99 97 96 93 91 89 89 86 86 86 86 86 85 88 91 92 94 97 97 96 100 103 101 100 99 97 95 96 96 96 97 100 106 101 98 99 95 88 83 87 92 92 95 97 95 93 89 86 86 87 89 90 87 84 81 81 79
130 131 132 131 133 131 124 122 125 124 118 119 124 120 120 121 116 113 109 105 107 104 101 102 104 105 103 101 97 96 95 92 90 88 87 85 82 81 84 86 85 86 90 93 96 99 99 98 99 99 97 98 98 95 95 96 96 97 101 103 97 91 92 92 89 83 80 85 88 90 96 97 96 93 89 87 85 85 88 89 87 85 83 82 81
128 128 128 130 131 127 124 127 127 122 120 125 126 122 123 122 116 113 112 111 109 106 107 107 108 109 105 101 98 97 94 93 91 88 87 86 85 83 81 82 85 86 90 94 97 101 101 101 101 102 101 100 100 97 97 97 96 96 100 104 101 95 90 86 84 83 82 87 90 91 94 95 93 90 88 88 90 93 94 89 85 85 82 80 81
127 126 126 128 127 124 127 129 127 123 125 129 128 127 129 124 119 118 116 112 110 108 107 107 109 111 109 104 100 98 95 93 92 92 92 90 88 84 81 83 89 90 91 95 99 102 103 103 102 104 103 102 101 100 100 98 97 96 100 106 107 100 93 90 89 88 87 89 92 92 91 90 89 89 89 90 94 97 93 87 84 83 82 82 82
125 124 124 124 123 124 128 126 126 128 130 133 132 134 131 124 120 120 116 111 112 110 107 105 105 107 108 106 102 99 96 96 96 96 93 90 88 85 85 87 91 94 94 95 99 102 103 104 104 105 103 103 102 101 100 97 97 98 101 105 103 98 94 93 93 93 92 92 93 91 88 86 86 88 90 93 95 94 89 85 84 83 82 82 83
125 124 123 123 124 126 127 125 129 131 134 135 135 135 128 124 122 117 113 111 110 107 107 105 104 104 103 105 104 102 100 101 101 97 92 91 91 87 89 92 93 94 95 96 97 101 104 105 106 106 104 103 102 101 99 97 99 99 104 105 99 98 94 92 95 96 93 90 91 91 88 86 88 91 93 94 94 92 90 87 85 85 83 84 85
126 126 126 125 126 127 127 129 132 134 135 134 134 132 125 124 121 114 111 112 110 105 106 106 105 104 104 106 106 104 102 102 101 98 96 95 92 88 90 94 95 92 93 97 98 100 102 104 107 107 105 104 102 101 100 100 101 102 106 103 99 96 91 91 97 98 94 90 90 90 89 89 91 93 95 94 92 91 89 88 87 87 84 84 84
126 128 127 125 127 129 130 132 134 134 133 132 133 129 122 120 116 114 112 111 109 107 108 107 106 106 106 107 106 106 104 104 103 102 101 97 93 90 91 93 93 92 93 96 99 101 103 105 106 107 107 107 107 105 104 104 104 105 106 104 103 98 93 96 96 94 92 90 90 89 90 93 94 94 95 93 93 92 90 89 87 86 85 83 82
128 128 127 128 131 132 133 134 134 132 131 131 132 125 118 116 114 114 113 111 111 111 111 109 108 108 108 106 105 106 107 109 107 106 103 99 98 95 93 94 95 96 98 98 100 102 104 106 106 106 107 111 112 110 108 109 109 107 105 106 105 97 94 100 98 93 93 94 94 93 94 96 96 95 95 95 95 94 92 90 87 86 85 84 83
131 130 130 131 133 135 136 136 134 132 131 130 128 121 115 115 115 115 115 115 114 113 112 111 112 111 109 105 104 104 106 108 108 107 105 101 97 95 94 95 96 97 98 99 101 103 105 106 106 107 109 111 113 111 110 110 110 107 107 109 107 99 99 102 97 96 98 101 100 98 101 102 102 100 99 99 98 97 94 91 89 87 85 85 84
133 133 133 133 135 136 137 136 134 131 128 126 123 121 119 118 119 117 118 117 117 116 114 112 111 110 108 107 106 106 107 107 107 106 105 101 94 94 96 95 97 97 96 98 104 107 108 107 107 108 109 110 111 110 110 110 108 105 105 106 103 101 102 102 98 99 102 104 102 102 106 108 106 104 102 99 99 98 96 94 91 88 85 84 84
133 135 134 135 136 134 135 135 134 130 126 127 125 124 122 119 120 120 119 117 117 117 116 113 110 108 108 110 111 110 109 108 108 108 105 103 99 97 99 100 101 101 101 103 107 108 108 109 109 109 109 108 107 106 107 108 106 104 103 101 98 96 99 102 103 103 102 103 102 105 108 107 105 102 100 99 100 99 97 96 92 89 85 81 79
133 134 134 135 133 133 136 134 133 131 130 132 129 126 123 120 123 124 122 119 116 115 114 113 112 110 109 111 112 111 110 108 107 109 108 108 107 101 101 102 101 104 106 105 107 108 108 109 109 108 107 106 105 105 105 104 103 103 102 97 92 89 92 100 103 103 101 102 104 107 107 103 101 100 98 99 102 100 97 96 95 92 88 82 77
134 133 134 136 131 132 136 133 132 131 131 131 127 125 124 124 124 124 124 121 118 115 114 115 115 115 112 111 112 111 110 110 111 112 109 110 106 98 99 101 100 104 106 107 108 108 108 109 110 110 108 106 103 101 98 98 99 100 96 87 84 87 94 99 101 101 101 103 106 109 106 101 101 100 99 100 99 97 97 97 95 92 89 85 79
137 136 136 137 132 131 134 134 133 132 131 129 128 127 125 126 128 128 126 122 119 117 116 118 118 118 115 110 110 111 110 110 113 113 110 111 107 99 100 102 103 104 105 107 107 108 109 109 110 108 105 100 96 97 95 94 93 90 87 81 85 95 98 99 101 102 103 104 109 114 110 104 104 102 101 99 96 95 95 97 94 91 88 84 78
142 141 139 138 134 132 134 133 134 137 132 130 133 133 131 133 136 136 132 129 127 123 122 124 121 116 115 112 109 112 116 117 118 114 114 116 110 103 101 103 105 105 103 102 103 106 108 110 110 107 105 103 104 113 108 103 97 89 88 88 93 99 98 99 99 101 104 108 113 117 114 111 110 106 102 100 97 93 94 95 91 86 83 81 76
145 142 139 140 137 135 136 133 137 138 131 134 139 139 140 138 138 142 142 140 138 133 132 132 123 116 122 123 119 120 122 125 127 121 118 120 114 109 106 105 105 102 101 103 105 107 108 109 110 112 120 125 125 124 117 116 114 101 97 96 98 100 100 100 99 101 105 112 118 119 117 115 112 110 107 103 97 90 87 87 86 81 75 74 68
144 142 140 141 140 139 137 136 140 139 132 137 140 142 143 140 138 141 143 138 135 132 131 127 123 125 126 124 124 123 122 125 130 126 126 133 128 116 112 111 111 110 108 110 115 114 118 119 109 112 125 125 114 106 105 104 100 96 92 94 99 101 99 97 101 105 109 116 121 124 127 122 116 115 115 108 100 90 81 81 82 78 69 62 56
143 144 142 142 143 142 140 139 143 142 137 137 140 147 148 145 141 139 140 134 128 127 126 121 121 124 118 118 122 120 117 120 126 131 136 147 145 128 125 123 118 119 114 106 113 114 113 115 104 102 106 102 99 95 93 91 91 90 90 94 100 101 100 100 104 108 114 121 126 132 136 134 131 126 125 117 102 91 78 74 74 71 63 50 44
144 146 143 144 147 145 144 143 143 143 142 138 139 146 147 145 142 137 135 132 129 127 124 119 117 115 112 117 125 122 123 120 122 135 139 140 139 133 135 138 134 132 125 109 108 106 94 93 89 87 90 91 94 94 89 89 93 96 98 100 99 100 102 104 107 112 118 123 128 144 148 144 146 142 141 132 110 103 93 74 68 59 51 42 35
146 147 145 148 151 148 146 145 143 143 143 140 136 134 132 131 133 130 127 131 132 126 122 120 118 115 113 118 125 127 132 130 125 128 126 118 119 123 127 129 129 128 127 115 105 102 95 89 86 83 84 89 98 102 103 105 105 107 107 105 102 102 102 105 112 117 122 125 122 139 159 158 158 159 153 146 136 120 91 61 50 28 30 32 22
150 150 148 152 152 150 149 146 144 145 144 141 137 132 129 126 126 126 127 133 129 122 123 122 120 118 115 115 117 121 125 125 121 116 114 113 108 104 101 99 100 104 106 102 98 95 92 86 82 82 85 97 107 110 117 117 111 112 113 112 110 107 106 108 114 114 117 126 123 117 145 160 162 166 168 166 160 151 157 27 5 2 10 7 351
152 150 151 152 152 153 152 148 145 146 145 143 140 135 134 131 128 127 128 128 122 123 127 123 120 118 114 104 92 104 116 115 114 112 111 110 107 101 99 97 92 96 98 96 95 93 92 87 81 82 87 102 101 98 104 103 103 108 110 114 114 114 115 114 116 119 118 126 127 104 108 128 136 145 155 166 163 162 187 205 283 324 335 317 320
152 152 151 152 154 155 152 149 148 146 146 143 140 139 137 133 131 132 130 125 124 126 125 120 118 115 113 104 80 84 108 108 104 109 113 110 108 106 105 104 99 99 102 99 98 95 93 88 85 88 89 92 89 82 93 98 103 105 108 114 115 116 120 126 126 125 121 123 131 115 97 103 109 112 114 121 129 137 185 207 241 237 262 281 285
155 155 150 153 157 156 151 150 150 147 148 145 141 142 139 135 136 135 130 129 131 130 124 120 118 115 114 111 87 78 94 98 94 103 111 104 105 108 101 100 101 98 97 98 101 102 103 104 103 101 87 90 96 89 93 103 107 108 113 114 114 114 115 124 120 116 119 122 134 137 121 102 94 96 100 97 97 97 105 127 329 323 316 314 312
157 153 150 156 159 154 149 150 152 149 149 147 144 144 140 140 141 136 135 136 137 133 127 125 123 122 119 113 101 88 93 96 97 104 110 105 101 105 105 101 99 99 98 103 109 111 114 119 113 101 102 118 108 94 96 103 107 114 114 111 111 112 111 112 109 113 120 123 128 134 141 145 101 79 86 78 71 68 51 31 13 1 350 342 333
155 152 154 158 158 153 152 153 152 152 150 147 147 145 143 145 143 138 143 144 141 138 132 133 134 132 125 118 111 98 99 102 103 102 109 122 116 100 106 109 105 107 114 117 115 111 109 108 100 96 106 121 95 84 90 99 107 112 110 112 112 112 116 111 108 111 110 112 123 126 130 148 163 152 86 52 48 45 39 27 13 8 358 348 339
154 154 157 157 157 156 156 154 152 154 150 147 148 146 146 146 145 144 150 150 146 144 138 141 141 135 129 124 121 111 107 106 103 89 86 119 123 110 107 113 114 112 118 119 113 117 111 95 98 97 86 81 88 82 78 93 104 104 103 109 108 113 116 106 109 114 108 107 113 115 120 133 150 171 194 337 30 28 23 27 20 14 2 353 345
155 156 156 156 157 156 160 156 154 156 149 148 148 146 147 145 146 148 151 154 151 146 140 142 141 133 133 131 126 121 119 114 107 108 101 89 105 114 110 112 117 110 116 123 115 117 105 97 102 98 102 113 95 87 85 97 101 101 105 109 110 118 115 111 122 112 101 103 111 117 125 137 140 151 169 183 210 352 15 33 33 27 26 13 5
157 158 157 158 158 156 162 158 155 157 150 149 147 147 149 145 150 152 153 161 154 147 142 141 139 135 133 133 133 130 128 123 115 120 119 105 101 113 114 114 116 112 120 128 121 121 113 119 111 92 123 204 87 94 102 106 108 113 112 109 105 110 111 108 107 97 96 98 111 126 134 153 158 159 172 165 175 221 349 13 30 38 40 28 18
159 162 159 160 159 157 162 157 156 158 151 150 149 150 153 151 156 155 158 167 156 148 145 140 140 139 133 134 141 137 133 135 130 125 116 119 115 105 107 117 117 116 133 137 126 130 129 134 135 129 150 283 65 92 92 90 97 105 102 102 91 83 108 106 101 105 127 125 115 134 124 144 165 153 183 178 156 168 287 327 355 2 24 24 10
162 162 162 163 160 158 159 155 158 159 152 153 153 153 156 160 164 159 161 169 160 149 146 146 143 140 136 140 147 144 142 142 140 146 123 121 119 108 112 122 121 126 151 145 130 127 121 117 120 137 166 276 60 79 85 86 66 62 65 82 82 66 91 110 144 126 117 117 121 179 150 124 166 159 166 190 187 158 166 281 323 306 290 4 3
164 162 162 166 162 159 159 158 161 159 154 157 159 160 164 167 170 166 166 170 164 152 150 153 148 140 140 145 147 141 142 142 144 154 136 109 114 121 128 128 127 128 127 124 127 129 128 111 108 132 166 178 187 125 98 78 62 60 39 52 75 128 126 104 170 158 144 131 120 235 164 130 138 162 179 167 175 161 143 190 289 290 272 324 336
167 164 165 168 165 163 162 160 163 163 161 163 165 169 170 172 176 173 172 173 169 165 163 160 152 144 142 146 145 138 140 143 148 150 140 129 124 129 134 134 134 128 116 113 114 121 134 131 129 159 180 172 180 160 101 68 63 74 41 59 76 113 137 142 182 176 163 149 134 94 112 155 158 164 173 148 112 224 208 189 239 289 317 313 309
170 169 170 170 168 169 167 164 165 167 169 167 169 175 175 176 177 178 178 172 171 174 173 168 157 149 149 151 146 142 145 144 146 148 147 151 142 138 140 138 134 131 135 130 120 135 158 170 189 194 176 150 145 118 101 75 74 80 44 51 83 79 117 180 198 182 162 153 151 143 144 171 167 159 159 155 180 216 232 183 8 343 341 315 298
174 174 175 172 171 173 170 169 169 170 173 171 172 176 178 179 178 182 182 173 174 178 176 172 164 157 158 162 155 148 150 148 149 151 152 154 144 141 144 142 138 139 144 143 145 156 165 204 221 199 164 141 130 116 107 359 28 68 67 61 103 95 94 200 196 175 159 157 165 159 163 169 143 136 185 212 202 189 244 193 69 336 299 305 299
177 178 178 175 175 176 173 173 175 173 175 175 175 176 175 179 180 183 186 173 173 177 175 175 173 167 165 167 167 160 159 156 153 156 156 147 144 148 145 144 146 148 146 148 164 169 173 203 213 177 192 148 137 135 119 67 40 39 42 81 184 104 91 152 153 154 143 148 173 148 139 195 143 137 232 228 213 205 225 169 124 287 273 274 283
180 180 181 180 178 177 175 175 177 176 177 175 175 175 171 175 177 179 183 173 171 178 180 181 181 179 175 174 173 170 171 163 156 161 159 151 157 163 148 148 152 160 159 155 168 170 173 195 188 195 246 63 101 131 129 84 68 37 5 56 18 64 36 3 113 194 197 148 154 125 114 220 135 108 251 199 277 269 199 141 136 214 232 262 274
182 183 183 183 180 178 176 175 177 178 179 177 176 174 171 176 176 177 182 179 179 184 185 187 185 186 186 178 175 176 177 172 165 166 159 157 166 167 171 175 160 167 179 162 169 176 174 179 179 195 229 77 62 81 150 153 83 78 158 121 38 35 34 339 22 285 263 129 160 139 140 224 138 125 210 178 188 213 101 113 169 179 176 297 299
182 184 184 184 181 178 177 176 178 178 179 177 176 176 175 179 180 181 185 185 188 189 188 194 189 187 190 178 174 177 178 179 173 167 161 161 167 172 186 196 176 173 181 180 188 184 163 157 170 182 153 119 82 336 171 128 98 214 194 134 46 32 61 9 30 159 153 4 302 173 133 155 156 135 142 160 142 94 68 328 263 142 120 41 349
181 182 183 183 180 178 177 177 178 179 179 178 178 179 179 181 184 186 188 189 193 190 187 195 192 188 190 180 176 175 177 183 172 165 168 168 172 180 188 203 205 183 176 188 200 175 136 135 163 170 156 156 183 271 302 340 235 170 119 36 47 48 92 130 80 303 237 115 265 245 99 127 141 104 51 50 90 93 111 34 2 95 102 53 9
184 184 182 180 178 177 177 178 179 179 180 179 179 182 182 182 185 188 190 191 194 189 185 192 190 189 190 180 178 174 175 181 173 168 174 176 177 179 186 204 210 191 184 187 182 162 138 144 173 178 188 201 197 242 271 282 279 230 105 356 22 10 301 189 172 192 195 122 181 144 113 159 141 92 352 360 54 79 115 105 96 99 80 54 19
187 186 185 180 176 176 176 179 180 179 181 180 180 184 184 184 187 190 192 190 191 188 184 188 187 186 189 183 182 180 177 180 180 176 175 180 182 179 188 200 201 198 192 172 159 170 165 163 183 185 185 203 199 226 238 245 283 299 297 69 12 326 344 301 255 167 117 203 278 210 145 179 171 128 354 349 24 330 67 101 177 115 54 28 24
187 187 191 182 175 177 176 178 180 180 181 181 182 185 186 187 189 191 193 191 190 187 183 187 187 186 190 189 189 187 184 182 181 183 183 183 184 182 191 198 198 204 194 171 175 183 180 174 179 181 186 213 221 231 249 247 248 270 277 230 228 229 164 244 291 20 54 260 292 297 94 34 343 117 101 355 295 292 109 217 160 87 27 10 18